Cloud_Cover
0 0 0 0 0 0 0 4 5 4 67 84 90 100 100 100 100 78 94 100 100 42 46 100 100 100 82 100 100 80 100 100 100 100 100 100 100 100 100 100 100 100 100
0 0 0 0 1 4 4 2 0 0 0 76 96 93 62 69 98 100 94 100 100 75 57 51 88 100 100 100 100 91 95 97 100 100 100 100 100 100 100 100 100 100 100
1 5 5 7 5 6 13 83 36 5 4 0 1 3 20 18 53 29 41 96 97 100 99 82 21 84 100 100 100 96 100 100 70 99 100 100 100 100 100 100 100 100 100
5 5 19 53 84 65 13 96 100 100 96 33 5 5 3 2 20 71 88 92 91 96 94 100 62 100 100 100 100 100 100 100 100 100 100 98 100 100 100 100 100 100 100
5 90 96 31 29 100 100 100 100 100 100 100 100 61 15 5 14 47 98 46 98 100 100 100 100 100 96 100 100 100 100 100 100 100 100 100 100 100 100 100 100 100 100
5 5 5 5 98 100 100 100 100 100 100 100 100 100 70 35 12 5 5 5 5 4 38 94 100 100 100 100 100 100 100 100 100 100 100 100 100 100 100 100 100 100 100
5 5 77 74 100 100 100 100 100 100 100 100 95 93 60 32 32 27 5 5 5 5 5 5 49 100 100 100 98 100 100 100 100 100 100 100 100 100 100 100 100 100 100
70 39 58 96 100 87 94 93 97 100 78 62 13 5 95 64 9 36 27 5 5 5 5 45 92 95 89 100 100 97 59 90 99 100 100 100 100 100 100 100 100 100 100
10 5 5 98 100 100 100 100 100 100 100 100 98 5 5 5 5 54 70 72 10 6 55 100 100 100 100 95 100 100 100 70 20 84 97 100 100 100 100 100 100 100 100
5 5 5 32 100 97 93 37 100 100 100 51 7 10 7 69 93 85 100 92 86 95 94 100 100 100 100 100 100 100 100 100 90 26 83 100 100 98 100 100 100 100 100
23 7 5 12 34 82 67 5 46 80 83 29 5 5 37 66 75 81 89 81 90 93 99 100 100 100 100 100 100 100 100 100 100 100 89 63 97 95 81 65 84 100 100
75 74 99 21 14 68 14 44 90 100 100 100 100 53 53 60 64 73 91 94 57 84 100 100 100 100 100 100 100 100 100 100 100 100 100 100 40 44 92 89 92 86 100
99 83 98 60 90 78 87 93 63 25 9 20 27 5 9 74 76 68 76 100 100 99 98 100 100 100 100 100 100 100 100 100 100 100 100 100 100 52 27 90 97 74 90
100 100 100 91 100 100 98 100 98 90 61 60 33 41 68 78 82 63 52 100 100 100 100 100 100 100 100 100 100 100 100 100 100 100 100 100 100 100 100 100 94 40 68
100 100 100 100 100 100 100 100 93 98 100 100 100 100 100 95 80 99 67 74 100 100 100 100 100 100 100 100 100 100 100 100 100 100 100 100 100 100 100 100 100 100 25
100 100 100 100 100 100 100 100 100 100 100 100 71 70 69 83 94 100 100 100 100 100 100 100 100 100 100 100 100 100 100 100 96 79 98 100 100 100 100 100 100 100 100
100 100 100 100 100 100 100 100 100 100 100 90 78 74 74 77 85 100 100 100 100 100 100 100 100 100 100 100 100 100 100 100 100 100 99 99 96 100 86 100 100 100 100
100 100 100 100 100 100 100 100 100 100 99 100 100 96 80 89 95 100 100 100 100 100 100 100 100 100 100 100 100 100 100 100 100 100 100 100 100 100 100 93 100 100 100
100 100 100 100 100 100 100 100 100 100 99 99 100 100 94 100 100 100 100 100 100 100 100 100 100 100 95 97 100 100 100 100 100 100 100 100 100 100 100 100 100 100 100
100 100 100 100 100 100 100 100 100 100 98 100 99 97 89 100 100 100 100 100 99 100 100 100 100 100 100 91 98 100 72 87 100 97 100 100 100 100 100 100 100 100 100
100 100 100 100 100 100 100 100 77 69 87 97 92 96 100 93 100 100 100 100 97 100 100 99 96 99 88 89 100 100 100 11 74 60 23 5 24 100 100 100 100 99 100
100 100 100 100 100 100 100 69 66 80 94 78 74 84 75 88 100 100 100 100 100 100 92 100 100 100 100 96 64 100 100 97 73 5 5 2 8 100 100 98 97 100 80
100 99 100 100 100 100 100 28 57 58 84 66 68 82 95 87 100 100 100 100 100 100 100 100 100 100 98 93 88 46 78 94 97 81 24 100 100 92 87 17 90 43 2
100 100 100 100 100 90 24 45 8 30 62 83 85 76 80 100 100 100 100 100 100 100 100 100 100 100 98 58 60 73 55 9 51 32 18 90 91 7 5 5 5 4 0
100 100 100 100 71 49 23 5 5 5 5 34 85 40 100 70 93 100 100 100 100 70 96 98 100 100 74 24 93 100 100 100 100 100 91 63 8 5 3 3 3 5 6
100 100 100 78 19 5 5 5 5 5 33 87 98 52 39 100 98 70 43 17 95 100 100 100 100 97 100 100 100 100 100 100 100 78 56 16 5 5 5 5 5 5 25